FREGAT DEB, 45837

Orbit data source: Space-Track

FREGAT DEB, 45837 is space debris in LEO originally from a launch on Mon, 18 Jul 2011 UTC launched from the Tyuratam Missile And Space Complex (TTMTR). Debris objects in space refer to the collection of defunct objects orbiting the Earth. Examples of debris include non-operational satellites, rocket bodies, and fragments generated from explosions, collisions, or faulty payload assembly.

Loading next visibility...
Identifier
45837, 2011-037BX
Orbit
LEO
Country
Flag of CISCIS
Related business
Manufacturer
Lavochkin
Mission
Spacecraft
Bus & Motor
Unknown
Mass
Unknown
Launch date (UTC)
2011-07-18 (15 years ago)
Launch vehicle
Unknown
Launch site
Tyuratam Missile And Space Complex (TTMTR)
Object type
Payload
Rocket body
Debris
Shape & HBR
Unknown shape, 0.2 m
Radar Cross Section
Small (<0.1 m²)

Expand to show TLE details & history
Last TLE update: 15 hours ago

TLE from 15 hours ago
0 FREGAT DEB
1 45837U 11037BX  26126.75986247 -.00019908  00000-0 -34360-1 0  9990
2 45837  51.5151 334.9471 1660371 348.3981   8.2583 11.06976181229423
Epoch: 2026-05-06T18:14Z
TLE epoch observation values (Epoch: 2026-05-06T18:14:12.117Z)
Latitude
0.00002°
Longitude
-163.21911°
Altitude
735.877 km
Speed
8.076 km/s
True Right ascension
22h 19m 47s
True Declination
0° 00' 00"
Sunlit
Object was in daylight at epoch
Visualization orbit readout
Latitude
Unknown
Longitude
Unknown
Altitude
Unknown
Speed
Unknown
Apparent Right ascension
Unknown
Apparent Declination
Unknown
Sunlit
N/A
Visualization observer readout
Local Sidereal Time
17:13:05
Azimuth
Unknown
Elevation
Unknown
Doppler factor
Unknown
Orbital elements
Apogee altitude
3,538.809 km
Perigee altitude
714.575 km
Semi-major axis
8,504.829 km
Eccentricity
0.16604
Inclination
51.5151°
RAAN
334.9471°
Arg. of periapsis
348.3981°
True anomaly
11.6861°
Mean anomaly
8.2583°
Eccentric anomaly
9.89271°
Mean motion
2.76723 °/min
Orbital period
130.09 mins
BSTAR
-0.03436
Loading maneuver chart data...
Computing Atmospheric mass density...
Loading historical data...
Loading historical data...
Loading historical data...
Loading historical data...
Loading historical data...
Loading historical data...
Loading historical data...

Documentation

Showing up to 5 results
|